Location: Unspecified
(0.0000°N, 0.0000°E)
Time: 11:02:05
(UTC+00:00)

S-56A Canister/Altair - Pass Details

Date: 27 May 2024
Orbit: 637 x 2489 km, 38.9° (Epoch: 17 June)

Event Time Altitude Azimuth Distance (km) Brightness Sun altitude
Rises 04:08:39 0° 266° (W) 6,085 - -25.1°
Reaches altitude 10° 04:14:08 10° 280° (W) 5,142 - -23.9°
Exits shadow 04:16:42 14° 288° (WNW) 4,771 11.1 -23.3°
Maximum altitude 04:24:20 22° 323° (NW) 4,137 11.1 -21.5°
Drops below altitude 10° 04:33:45 10° 8° (N) 4,655 11.9 -19.4°
Sets 04:38:28 0° 23° (NNE) 5,377 12.6 -18.3°
